EXPRESS-AM7 (40505 NORAD) Tracking and Keplerian Element Data

This shows tracking and keplerian element data for the satellite.

Feedback or suggestion? Click here.




ElementValue
Catalog40505
NameEXPRESS-AM7
Epoch Orbit2371
Epoch Day269.9275762
Epoch Year2021
RAAN210.8267
Inclination0.0188
Eccentricity0.0002881
Argument of Perigee350.9154
Mean Anonmoly178.1281
Mean Motion1.00270833
Decay Rate1.49E-06
L11 40505U 15012A 21269.92757620 .00000149 00000-0 00000-0 0 9995
L22 40505 0.0188 210.8267 0002881 350.9154 178.1281 1.00270833 23710

Live tracking and technical data element details for EXPRESS-AM7 (NORAD 40505). EXPRESS-AM7 can be tracked NOW for your location showing map with azimuth and elevation plus other details from your city location.

Track the satellite on the map from your city or location and see movement details for azimuth, elevation, latitude, longitude, range, height, and movement on the map or in text.







IsCatalogInMostPopularTable: catalog: 40505, numindb: 553
Update: records affected: 1



GetName: 40505 EXPRESS-AM7

Hit Count: updated at: Tue, 28 Sep 2021 17:37:55 GMT